Location: Ambatotampy
(18.8181°S, 47.6186°E)
Time: 23:45:27
(UTC+00:00)

Cosmos 2237 Rocket - Pass Details

Date: 21 January 2021
Orbit: 833 x 851 km, 71.0° (Epoch: 24 February)

Event Time Altitude Azimuth Distance (km) Brightness Sun altitude
Rises 01:20:42 0° 209° (SSW) 3,395 5.3 -15.5°
Reaches altitude 10° 01:23:17 10° 216° (SW) 2,456 4.5 -14.9°
Maximum altitude 01:28:30 40° 284° (WNW) 1,208 2.5 -13.8°
Drops below altitude 10° 01:33:43 10° 352° (N) 2,442 4.3 -12.7°
Sets 01:36:16 0° 360° (N) 3,372 5.1 -12.2°
